Regional Weather Roundup
Issued by NWS

Home | Current Version | Previous Version | Graphics & Text | Print | Product List | Glossary On
Versions: 1 2 3 4 5 6 7 8 9 10 11 12 13 14 15 16 17 18 19 20 21 22 23 24 25 26 27 28 29 30 31 32 33 34 35 36 37 38 39 40 41 42 43 44 45 46 47 48 49 50
000
ASUS43 KLMK 160102
RWRKY
KENTUCKY REGIONAL WEATHER ROUNDUP
NATIONAL WEATHER SERVICE LOUISVILLE KY
900 PM EDT MON SEP 15 2014

NOTE "FAIR" INDICATES FEW OR NO CLOUDS BELOW 12,000 FEET
WITH NO SIGNIFICANT WEATHER AND/OR OBSTRUCTIONS TO VISIBILITY.

KYZ001>023-026-027-061>063-070>075-160200-
WESTERN AND SOUTH CENTRAL KENTUCKY

CITY           SKY/WX    TMP DP  RH WIND       PRES   REMARKS
PADUCAH        PTCLDY    71  62  73 CALM      30.07R
HENDERSON      CLOUDY    70  57  64 S3        30.06S
OWENSBORO      PTCLDY    69  61  76 S5        30.08R
HOPKINSVILLE   MOCLDY    68  64  87 S7        30.09S
BOWLING GREEN  PTCLDY    69  60  73 S5        30.10S
GLASGOW        CLOUDY    66  61  82 CALM      30.11R
$$

KYZ024-025-028>034-038-045-046-053-160200-
NORTH CENTRAL KENTUCKY

CITY           SKY/WX    TMP DP  RH WIND       PRES   REMARKS
LOUISVILLE/SDF CLOUDY    66  58  75 NE9       30.09R
LOUISVILLE/LOU CLOUDY    64  58  80 E5        30.10S
FORT KNOX      CLOUDY    68  60  77 N13       30.09R
$$

KYZ035>037-039>044-047>052-055>060-089>105-160200-
NORTHEAST KENTUCKY

CITY           SKY/WX    TMP DP  RH WIND       PRES   REMARKS
LEXINGTON      LGT RAIN  63  58  83 N10       30.16R
COVINGTON      CLOUDY    60  56  86 SW5       30.08S
FRANKFORT      CLOUDY    61  59  93 SE8       30.10R
$$

KYZ054-064>069-076>088-106>120-160200-
SOUTHEAST KENTUCKY

CITY           SKY/WX    TMP DP  RH WIND       PRES   REMARKS
JACKSON        CLOUDY    65  60  84 VRB3      30.09F
LONDON         CLOUDY    67  62  84 S3        30.14R
SOMERSET       NOT AVBL
MIDDLESBORO    CLOUDY    66  65  96 CALM      30.15R
MONTICELLO     CLOUDY    64  62  93 CALM      30.14R
$$




USA.gov is the U.S. government's official web portal to all federal, state and local government web resources and services.